STARLINK-32784 (62607 NORAD) Tracking and Keplerian Element Data

This shows tracking and keplerian element data for the satellite.

Feedback or suggestion? Click here.




ElementValue
Catalog62607
NameSTARLINK-32784
Epoch Orbit5345
Epoch Day354.09447627
Epoch Year2025
RAAN7.2327
Inclination43.0039
Eccentricity3.87E-05
Argument of Perigee296.9554
Mean Anonmoly63.1258
Mean Motion15.27594745
Decay Rate9.514E-05
L11 62607U 25008W 25354.09447627 .00009514 00000+0 35464-3 0 9997
L22 62607 43.0039 7.2327 0000387 296.9554 63.1258 15.27594745 53452



Live tracking and technical data element details for STARLINK-32784 (NORAD 62607). STARLINK-32784 can be tracked NOW for your location showing map with azimuth and elevation plus other details from your city location.







IsCatalogInMostPopularTable: catalog: 62607, numindb: 231
Update: records affected: 1



GetName: 62607 STARLINK-32784

Hit Count: updated at: Fri, 16 Jan 2026 08:51:46 GMT